Location: Sangrey
(48.2845°N, 109.8206°W)
Time: 08:42:53
(UTC+00:00)

X-37B - Visible Passes

Search period start: 30 November 2023 00:00
Search period end: 10 December 2023 00:00
Orbit: 277 x 277 km, 45.0° (Epoch: 01 November)

Date Brightness Start Highest point End Pass type
(mag) Time Alt. Az. Time Alt. Az. Time Alt. Az.
02 Dec 2.5 00:32:58 10° S 00:34:20 14° SSE 00:35:39 10° ESE visible
03 Dec 2.0 00:32:59 10° SSW 00:34:51 19° SSE 00:36:17 13° ESE visible
04 Dec 1.6 00:33:17 10° SW 00:35:24 25° SSE 00:36:55 15° ESE visible
05 Dec 1.3 00:33:45 10° WSW 00:36:00 31° S 00:37:34 16° ESE visible
06 Dec 1.1 00:34:18 10° WSW 00:36:36 36° S 00:38:13 16° ESE visible
07 Dec 1.1 00:34:54 10° WSW 00:37:13 37° S 00:38:56 15° ESE visible
08 Dec 1.3 00:35:33 10° WSW 00:37:50 34° S 00:39:43 13° ESE visible
09 Dec 1.7 00:36:14 10° WSW 00:38:26 29° SSW 00:40:36 10° SE visible
